Regional Weather Roundup
Issued by NWS

Home | Current Version | Previous Version | Graphics & Text | Print | Product List | Glossary On
Versions: 1 2 3 4 5 6 7 8 9 10 11 12 13 14 15 16 17 18 19 20 21 22 23 24 25 26 27 28 29 30 31 32 33 34 35 36 37 38 39 40 41 42 43 44 45 46 47 48 49 50
000
ASUS45 KTFX 220010
RWRMT
MONTANA REGIONAL WEATHER ROUNDUP
NATIONAL WEATHER SERVICE GREAT FALLS MT
500 PM MST SUN JAN 21 2018

NOTE: "FAIR" INDICATES FEW OR NO CLOUDS BELOW 12000 FEET WITH NO
SIGNIFICANT WEATHER AND/OR OBSTRUCTIONS TO VISIBILITY.

MTZ001>007-043-220100-
WEST OF THE DIVIDE

CITY           SKY/WX    TMP DP  RH WIND       PRES   REMARKS
KALISPELL      FAIR      32  24  72 S9        30.01F WCI  24
MISSOULA       FAIR      35  21  56 E8        30.05F WCI  29
BUTTE          FAIR      11   6  81 S6        30.05S WCI   1
MULLAN PASS    FAIR      22  19  89 MISG      29.91S
ANACONDA         N/A     27  14  59 CALM      30.05S
DEER LODGE       N/A     18  12  79 W6        30.09R WCI   9
EUREKA           N/A     36  25  64 MISG      29.98S
HAMILTON         N/A     37  19  48 SE12      30.06F WCI  30
RONAN            N/A     30  19  64 SE7       30.03F WCI  23
$$

MTZ008-052>055-220100-
SOUTHWEST MONTANA

CITY           SKY/WX    TMP DP  RH WIND       PRES   REMARKS
BOZEMAN        FAIR      21  13  71 CALM      30.09R
DILLON         FAIR      20  12  71 S8        30.07R WCI  10
ENNIS          CLEAR     23  12  63 S8        30.12R WCI  14
W YELLOWSTONE  FAIR      19  14  79 SW8G15    30.09R WCI   9
THREE FORKS      N/A     30  19  63 CALM      30.07R
$$

MTZ009-010-012-014-046-048-049-054-220100-
EAST SLOPES AND CENTRAL MONTANA

CITY           SKY/WX    TMP DP  RH WIND       PRES   REMARKS
CUT BANK       FAIR      35  15  44 SW9G25    29.88S WCI  28
GREAT FALLS    FAIR      33  16  49 SW22G30   29.95R WCI  21
MALMSTROM AFB  FAIR      33  19  57 SW15      29.96S WCI  23
HELENA         FAIR      24  17  74 W6        30.07R WCI  17
AUGUSTA        FAIR      30  17  58 SW7       29.92S WCI  23
BOWMANS CRNR   FAIR      29  17  62 S23       29.93S WCI  15
CHOTEAU          N/A     34  18  51 SW9       29.93S WCI  26
CONRAD           N/A     26  20  78 SW2       29.94
FAIRFIELD      FAIR      32  19  59 S17       29.92S WCI  21
POWER          FAIR      30  19  65 S15       29.93S WCI  19
RAYNESFORD     FAIR      35  11  37 SW20      29.96R WCI  24
ULM            FAIR      34  17  49 W14       29.97R WCI  25
WHITE SULPHUR    N/A     23  12  63 S20       30.01R WCI   8
$$

MTZ011-013-016-021-045-047-050-051-220100-
NORTH CENTRAL MONTANA

CITY           SKY/WX    TMP DP  RH WIND       PRES   REMARKS
HAVRE          FAIR      25  20  81 SW10      29.95S WCI  15
LEWISTOWN      FAIR      31  16  54 CALM      29.94R
N BAR RANCH    FAIR      28  18  64 E5        29.97R
CHINOOK          N/A     21  16  79 E5        29.97S
DENTON         FAIR      32  20  60 MISG      29.92R
GEYSER         FAIR      33  16  48 W10       29.94R WCI  25
GRASS RANGE    FAIR      33  18  52 NE3       29.92R
STANFORD       FAIR      29  20  70 CALM      29.93R
WINIFRED       FAIR      28  19  71 NE6       29.95R WCI  21
$$

MTZ017>020-022>027-061-062-220100-
NORTHEAST MONTANA

CITY           SKY/WX    TMP DP  RH WIND       PRES   REMARKS
GLASGOW        FAIR      24  16  71 CALM      30.00R
GLENDIVE       FAIR      22  18  85 S9        30.03R WCI  12
JORDAN           N/A     26  19  74 S3        30.00R
MALTA          CLEAR     14  10  85 CALM      30.00S
SIDNEY         FAIR      29  22  75 SE3       30.02R
WOLF POINT     FAIR      23  15  71 W7        30.02R WCI  15
PLENTYWOOD       N/A     28  21  74 CALM      29.97R
POPLAR           N/A     23  16  74 W3        30.02R
$$

MTZ028>42-056>058-220100-
SOUTHCENTRAL AND SOUTHEAST MONTANA

CITY           SKY/WX    TMP DP  RH WIND       PRES   REMARKS
BAKER          FAIR      25  20  81 W9        30.02R WCI  15
BILLINGS       FAIR      34  18  52 SW6       30.00R WCI  29
LIVINGSTON     FAIR      25  16  68 W15       30.02S WCI  13
MILES CITY     FAIR      26  18  71 S3        30.04R
BIG TIMBER     CLEAR     28  16  59 W24G30    29.99S WCI  14
FORSYTH          N/A     25  18  74 E3        30.03S
HARLOWTON      FAIR      28  16  62 W31G38    29.95R WCI  11
LAUREL           N/A     32  18  55 W8        30.01S WCI  25
$$

REGIONAL REPORTS...DAKOTAS

CITY           SKY/WX    TMP DP  RH WIND       PRES   REMARKS
WILLISTON      FAIR      27  20  75 W5        30.00R
MINOT          FAIR      27  20  75 S5        30.01R
DICKINSON      FAIR      26  21  81 W7        29.98R WCI  18
BEACH          FAIR      25  21  86 W13       30.03S WCI  13
CROSBY         FAIR      21  18  86 SW7       29.98R WCI  13
TIOGA          FAIR      19  19 100 SW8       29.98S WCI   9
BISMARCK       FAIR      23  20  88 E5        30.04R
GRAND FORKS    CLOUDY    25  23  92 N8        30.10S WCI  16
FARGO          CLOUDY    26  23  88 N10       30.07R WCI  16
BUFFALO SD       N/A     29  21  72 NW13      29.93R WCI  19
RAPID CITY     CLOUDY    32  23  69 N14       29.99R WCI  22
$$

REGIONAL REPORTS...WYOMING/IDAHO/WASHINGTON

CITY           SKY/WX    TMP DP  RH WIND       PRES   REMARKS
GILLETTE       FAIR      20  17  88 W8        30.01S WCI  10
SHERIDAN       FAIR      24  16  71 SW6       30.02S WCI  17
BUFFALO WY     FAIR      27  13  55 NW3       30.02R
CODY           FAIR      29  18  63 SE8       30.02R WCI  21
YELLOWSTONE LA   N/A      4   2  91 CALM      30.08R
IDAHO FALLS    FAIR      30  21  69 SW13      30.18R WCI  20
SALMON         FAIR      28  20  71 NW3       30.17S
BOISE          FAIR      42  23  46 SE10      30.17S
SPOKANE        FLURRIES  38  29  70 S13G21    29.94F WCI  30
$$

REGIONAL REPORTS...ALBERTA

CITY           SKY/WX    TMP DP  RH WIND       PRES   REMARKS
CALGARY        PTCLDY    34  19  55 CALM      29.68F
CARDSTON         N/A     36  12  38 W12G18      N/A  WCI  27
EDMONTON       CLEAR     19  16  86 E8        29.72S WCI   9
FORT MCMURRAY  CLOUDY     9   5  85 E6        29.99R WCI  -1
HIGH LEVEL     FLURRIES  10   9  92 E8        29.84F WCI  -1
LETHBRIDGE     MOCLDY    34  23  64 S10       29.83S WCI  26
LLOYDMINSTER   CLOUDY    23  21  93 SE16      29.86S FOG     WCI  10
MEDICINE HAT   PTCLDY    36  25  64 S13G18    29.85F WCI  27
MILK RIVER       N/A     30  23  74 SW9         N/A  WCI  22
ONEFOUR          N/A     18  14  86 E8          N/A  WCI   7
PEACE RIVER    CLOUDY    21  18  86 NE13      29.62S WCI   9
PINCHER CREEK  MOCLDY    32  19  59 W21G29    29.80F WCI  20
WATERTON GATE    N/A     32  14  47 SW28G38     N/A  WCI  18
$$

REGIONAL REPORTS...SASKATCHEWAN

CITY           SKY/WX    TMP DP  RH WIND       PRES   REMARKS
CORONACH         N/A     19  14  79 W6          N/A  WCI  11
CYPRESS HILLS    N/A     25  12  58 SW7         N/A  WCI  17
ESTEVAN        PTCLDY    19  16  86 SW5       29.97R
PRINCE ALBERT  CLOUDY    18  14  86 E8        30.03R WCI   7
REGINA         PTCLDY    16  14  93 SE8       29.96R WCI   5
ROCKGLEN         N/A     21  14  73 W13         N/A  WCI   9
SASKATOON      CLOUDY    25  23  93 E8        29.98S WCI  16
SWIFT CURRENT  CLEAR     27  19  74 SW8       29.89R WCI  18
VAL MARIE        N/A     21  14  73 W5          N/A
$$



USA.gov is the U.S. government's official web portal to all federal, state and local government web resources and services.